Time,TemperatureF,DewpointF,PressureIn,WindDirection,WindDirectionDegrees,WindSpeedMPH,WindSpeedGustMPH,Humidity,HourlyPrecipIn,Conditions,Clouds,dailyrainin,SoftwareType,DateUTC
2015-03-27 00:02:00,38.4,30.2,30.07,NNW,331,7.0,10.0,72,0.00,,,0.00,Wunderground v.1.15,2015-03-27 05:02:00,
2015-03-27 00:08:00,38.2,30.0,30.07,NW,322,7.0,10.0,72,0.00,,,0.00,Wunderground v.1.15,2015-03-27 05:08:00,
2015-03-27 00:14:00,38.0,29.8,30.07,NNW,346,7.0,13.0,72,0.00,,,0.00,Wunderground v.1.15,2015-03-27 05:14:00,
2015-03-27 00:20:00,37.8,29.6,30.07,North,360,8.0,8.0,72,0.00,,,0.00,Wunderground v.1.15,2015-03-27 05:20:00,
2015-03-27 00:26:00,37.7,29.5,30.07,NNW,339,8.0,10.0,72,0.00,,,0.00,Wunderground v.1.15,2015-03-27 05:26:00,
2015-03-27 00:32:00,37.5,29.6,30.06,NNW,340,8.0,10.0,73,0.00,,,0.00,Wunderground v.1.15,2015-03-27 05:32:00,
2015-03-27 00:38:00,37.3,29.4,30.07,NNW,348,8.0,10.0,73,0.00,,,0.00,Wunderground v.1.15,2015-03-27 05:38:00,
2015-03-27 00:44:00,37.1,29.6,30.06,North,356,8.0,8.0,74,0.00,,,0.00,Wunderground v.1.15,2015-03-27 05:44:00,
2015-03-27 00:50:00,36.8,29.6,30.06,SE,141,7.0,8.0,75,0.00,,,0.00,Wunderground v.1.15,2015-03-27 05:50:00,
2015-03-27 00:56:00,36.6,29.4,30.06,North,10,7.0,11.0,75,0.00,,,0.00,Wunderground v.1.15,2015-03-27 05:56:00,
2015-03-27 01:02:00,36.4,28.9,30.06,NNW,329,8.0,13.0,74,0.00,,,0.00,Wunderground v.1.15,2015-03-27 06:02:00,
2015-03-27 01:07:00,36.3,29.1,30.06,NNW,340,9.0,14.0,75,0.00,,,0.00,Wunderground v.1.15,2015-03-27 06:07:00,
2015-03-27 01:13:00,36.2,29.0,30.07,NNW,327,9.0,13.0,75,0.00,,,0.00,Wunderground v.1.15,2015-03-27 06:13:00,
2015-03-27 01:19:00,36.1,28.9,30.06,NNW,346,10.0,14.0,75,0.00,,,0.00,Wunderground v.1.15,2015-03-27 06:19:00,
2015-03-27 01:25:00,35.9,29.1,30.07,North,352,9.0,12.0,76,0.00,,,0.00,Wunderground v.1.15,2015-03-27 06:25:00,
2015-03-27 01:31:00,35.7,28.9,30.07,NNW,344,8.0,10.0,76,0.00,,,0.00,Wunderground v.1.15,2015-03-27 06:31:00,
2015-03-27 01:37:00,35.5,29.0,30.07,North,4,8.0,11.0,77,0.00,,,0.00,Wunderground v.1.15,2015-03-27 06:37:00,
2015-03-27 01:43:00,35.3,28.8,30.07,NNW,338,9.0,15.0,77,0.00,,,0.00,Wunderground v.1.15,2015-03-27 06:43:00,
2015-03-27 01:49:00,35.1,28.9,30.07,NNW,335,10.0,16.0,78,0.00,,,0.00,Wunderground v.1.15,2015-03-27 06:49:00,
2015-03-27 01:55:00,35.0,28.8,30.07,North,4,10.0,12.0,78,0.00,,,0.00,Wunderground v.1.15,2015-03-27 06:55:00,
2015-03-27 02:00:00,34.9,28.7,30.07,North,354,9.0,9.0,78,0.00,,,0.00,Wunderground v.1.15,2015-03-27 07:00:00,
2015-03-27 02:06:00,34.7,28.5,30.08,NNW,337,8.0,13.0,78,0.00,,,0.00,Wunderground v.1.15,2015-03-27 07:06:00,
2015-03-27 02:12:00,34.6,28.8,30.08,NNW,341,8.0,8.0,79,0.00,,,0.00,Wunderground v.1.15,2015-03-27 07:12:00,
2015-03-27 02:18:00,34.3,28.5,30.08,NNW,333,7.0,8.0,79,0.00,,,0.00,Wunderground v.1.15,2015-03-27 07:18:00,
2015-03-27 02:24:00,34.2,28.4,30.08,NNW,343,7.0,9.0,79,0.00,,,0.00,Wunderground v.1.15,2015-03-27 07:24:00,
2015-03-27 02:30:00,34.0,28.2,30.08,NNE,21,7.0,7.0,79,0.00,,,0.00,Wunderground v.1.15,2015-03-27 07:30:00,
2015-03-27 02:36:00,33.9,28.4,30.08,NNW,342,7.0,12.0,80,0.00,,,0.00,Wunderground v.1.15,2015-03-27 07:36:00,
2015-03-27 02:41:00,33.8,28.3,30.08,NNW,338,7.0,7.0,80,0.00,,,0.00,Wunderground v.1.15,2015-03-27 07:41:00,
2015-03-27 02:47:00,33.7,28.2,30.08,NNW,347,6.0,7.0,80,0.00,,,0.00,Wunderground v.1.15,2015-03-27 07:47:00,
2015-03-27 02:52:00,33.7,28.2,30.08,North,350,6.0,8.0,80,0.00,,,0.00,Wunderground v.1.15,2015-03-27 07:52:00,
2015-03-27 02:58:00,33.6,28.1,30.09,North,352,6.0,8.0,80,0.00,,,0.00,Wunderground v.1.15,2015-03-27 07:58:00,
2015-03-27 03:04:00,33.6,27.8,30.08,North,352,6.0,11.0,79,0.00,,,0.00,Wunderground v.1.15,2015-03-27 08:04:00,
2015-03-27 03:10:00,33.5,27.7,30.08,NNW,346,6.0,6.0,79,0.00,,,0.00,Wunderground v.1.15,2015-03-27 08:10:00,
2015-03-27 03:16:00,33.5,27.7,30.08,North,3,6.0,11.0,79,0.00,,,0.00,Wunderground v.1.15,2015-03-27 08:16:00,
2015-03-27 03:22:00,33.5,27.4,30.08,NNW,346,6.0,9.0,78,0.00,,,0.00,Wunderground v.1.15,2015-03-27 08:22:00,
2015-03-27 03:28:00,33.5,27.4,30.08,North,360,7.0,11.0,78,0.00,,,0.00,Wunderground v.1.15,2015-03-27 08:28:00,
2015-03-27 03:34:00,33.5,27.4,30.08,NNW,348,6.0,6.0,78,0.00,,,0.00,Wunderground v.1.15,2015-03-27 08:34:00,
2015-03-27 03:40:00,33.4,27.6,30.08,NNW,331,5.0,7.0,79,0.00,,,0.00,Wunderground v.1.15,2015-03-27 08:40:00,
2015-03-27 03:46:00,33.4,27.9,30.08,NNW,341,5.0,7.0,80,0.00,,,0.00,Wunderground v.1.15,2015-03-27 08:46:00,